User: anonymous   Login
Location: Unspecified
(0.0000°N, 0.0000°E)
Time: 00:09:26
(UTC+00:00)
Language:

ICEYE-X55 - Orbit

View from above orbital plane
View from above orbital plane
View from above satellite
View from above satellite

Ground track
Ground track

The orbit is defined by the following mean orbital elements,

1 64581U          26145.61168516 +.00000000 +00000-0 +29337-3 0 00006
2 64581  97.7719 260.6105 0004622  76.2074 283.9661 14.95052968    00
Epoch (UTC): 25 May 2026 14:40:49
Eccentricity: 0.0004622
inclination: 97.7719°
perigee height: 579 km
apogee height: 585 km
right ascension of ascending node: 260.6105°
argument of perigee: 76.2074°
revolutions per day: 14.95052968
mean anomaly at epoch: 283.9661°

The dashed part of the orbit path shows where the satellite is in the earth's shadow,  

DLR